Location: Unspecified
(0.0000°N, 0.0000°E)
Time: 01:40:56
(UTC+02:00)

ATLAS 2AS CENTAUR R/B - Visible Passes

Search period start: 23 May 2015 00:00
Search period end: 02 June 2015 00:00
Orbit: 912 x 1300 km, 63.7° (Epoch: 21 May)

Date Brightness Start Highest point End Pass type
(mag) Time Alt. Az. Time Alt. Az. Time Alt. Az.
23 May 6.4 07:26:33 10° NE 07:28:24 11° ENE 07:30:58 10° E visible
23 May 2.6 20:49:25 10° SSW 20:55:50 77° ESE 21:02:53 10° NNE visible
24 May 5.1 21:57:14 10° WSW 22:02:07 20° WNW 22:06:57 10° NNW visible
25 May 4.1 21:11:09 10° SW 21:17:11 39° WNW 21:23:39 10° N visible
26 May 5.9 07:00:42 10° NNE 07:05:16 18° ENE 07:10:05 10° ESE visible
26 May 3.0 20:25:58 10° SSW 20:32:24 74° WNW 20:39:28 10° NNE visible
27 May 5.8 21:35:36 10° W 21:38:56 13° WNW 21:41:49 10° NW visible
28 May 4.1 07:19:42 10° N 07:26:58 47° ENE 07:33:44 10° SE visible
28 May 5.0 20:48:24 10° WSW 20:53:53 27° WNW 20:59:33 10° N visible
29 May 5.1 06:36:04 10° NNE 06:42:03 26° ENE 06:47:56 10° ESE visible
30 May 5.8 05:53:58 10° NE 05:56:58 13° ENE 06:00:32 10° E visible
31 May 3.3 06:56:00 10° NNW 07:03:36 67° ENE 07:10:35 10° SSE visible
31 May 5.8 20:26:08 10° WSW 20:30:39 18° WNW 20:34:59 10° NNW visible
01 Jun 4.3 06:11:54 10° N 06:18:47 37° ENE 06:25:17 10° SE visible
